Great Bend, NY

5:16 PM EDT on September 24, 2016 (GMT -0400)
Wheeler-Sack Army Air Field

Weather History for KGTB - March, 2012

Change the Weather History Date:

Saturday, March 31, 2012

  Actual Average Record
Temperature  
Mean Temperature 36 °F -  
Max Temperature 44 °F 41 °F 82 °F (1998)
Min Temperature 30 °F 26 °F 17 °F (2003)
Degree Days  
Heating Degree Days 28    
Moisture  
Dew Point 30 °F    
Average Humidity 80    
Maximum Humidity 100    
Minimum Humidity 62    
Precipitation  
Precipitation 0.01 in - - ()
Sea Level Pressure  
Sea Level Pressure 29.95 in    
Wind  
Wind Speed 7 mph (NE)    
Max Wind Speed 13 mph    
Max Gust Speed -    
Visibility 9 miles    
Events Snow    
Averages and records for this station are not official NWS values.
T = Trace of Precipitation, MM = Missing Value Source: NWS Daily Summary

Daily Weather History Graph

Daily Weather History Graph

Search for Another Location

Airport or City:

Trip Planner

Search our weather history database for the weather conditions in past years. The results will help you decide how hot, cold, wet, or windy it might be!

Date:

Astronomy

Mar. 31, 2012 Rise Set
Actual Time 6:45 AM EDT 7:29 PM EDT
Civil Twilight 6:16 AM EDT 7:58 PM EDT
Nautical Twilight 5:41 AM EDT 8:33 PM EDT
Astronomical Twilight 5:05 AM EDT 9:09 PM EDT
Moon 12:41 PM EDT (3/31) 2:53 AM EDT (3/31)
Length of Visible Light 13h 42m
Length of Day
12h 44m
First Quarter, 59% of the Moon is Illuminated
Mar 31
First Quarter
Apr 6
Full
Apr 13
Last Quarter
Apr 21
New
Apr 29
First Quarter

Hourly Weather History & Observations

Time (EDT) Temp. Windchill Dew Point Humidity Pressure Visibility Wind Dir Wind Speed Gust Speed Precip Events Conditions
12:55 AM 34.7 °F 28.8 °F 22.8 °F 62% 29.99 in 10.0 mi East 6.9 mph - N/A   Overcast
1:55 AM 34.5 °F 27.9 °F 24.3 °F 66% 29.97 in 10.0 mi East 8.1 mph - N/A   Overcast
2:55 AM 34.2 °F 30.0 °F 25.2 °F 70% 29.96 in 10.0 mi ENE 4.6 mph - N/A   Overcast
3:05 AM 33.8 °F 28.6 °F 24.8 °F 70% 29.96 in 10.0 mi ENE 5.8 mph - N/A   Overcast
3:55 AM 33.3 °F 26.4 °F 24.8 °F 71% 29.94 in 10.0 mi ENE 8.1 mph - 0.00 in Snow Light Snow
4:55 AM 31.6 °F 23.1 °F 23.7 °F 73% 29.96 in 10.0 mi NNE 10.4 mph - 0.00 in   Overcast
5:17 AM 32.0 °F 22.5 °F 24.8 °F 75% 29.96 in 9.0 mi NE 12.7 mph - N/A   Overcast
5:26 AM 30.2 °F 20.2 °F 24.8 °F 80% 29.96 in 9.0 mi NE 12.7 mph - N/A   Overcast
5:55 AM 30.7 °F 21.4 °F 26.1 °F 83% 29.96 in 8.0 mi NE 11.5 mph - 0.00 in Snow Light Snow
6:10 AM 30.2 °F 21.3 °F 26.6 °F 86% 29.96 in 10.0 mi ENE 10.4 mph - N/A Snow Light Snow
6:16 AM 30.2 °F 21.3 °F 26.6 °F 86% 29.96 in 10.0 mi ENE 10.4 mph - N/A Snow Light Snow
6:49 AM 30.2 °F 21.9 °F 28.4 °F 93% 29.97 in 2.5 mi NE 9.2 mph - N/A Snow Light Snow
6:51 AM 30.2 °F 21.9 °F 28.4 °F 93% 29.97 in 2.0 mi NE 9.2 mph - N/A Snow Light Snow
6:55 AM 30.2 °F 21.9 °F 28.4 °F 93% 29.97 in 2.0 mi NE 9.2 mph - 0.00 in Snow Light Snow
6:56 AM 30.2 °F 21.9 °F 28.4 °F 93% 29.97 in 2.5 mi NE 9.2 mph - N/A Snow Light Snow
6:59 AM 30.2 °F 21.9 °F 28.4 °F 93% 29.97 in 3.0 mi NE 9.2 mph - N/A Snow Light Snow
7:50 AM 30.2 °F 22.6 °F 30.2 °F 100% 29.97 in 4.0 mi ENE 8.1 mph - N/A Snow Light Snow
7:55 AM 30.7 °F 24.1 °F 30.4 °F 99% 29.97 in 5.0 mi ENE 6.9 mph - 0.00 in Snow Light Snow
8:00 AM 30.2 °F 24.3 °F 30.2 °F 100% 29.97 in 6.0 mi ENE 5.8 mph - N/A Snow Light Snow
8:09 AM 30.2 °F 23.4 °F 30.2 °F 100% 29.98 in 8.0 mi NE 6.9 mph - N/A Snow Light Snow
8:24 AM 32.0 °F 25.6 °F 30.2 °F 93% 29.98 in 10.0 mi ENE 6.9 mph - N/A Snow Light Snow
8:31 AM 32.0 °F 24.8 °F 30.2 °F 93% 29.98 in 10.0 mi NE 8.1 mph - N/A Snow Light Snow
8:55 AM 31.6 °F 24.4 °F 31.5 °F 99% 29.99 in 10.0 mi NE 8.1 mph - 0.00 in   Overcast
9:25 AM 32.0 °F 24.8 °F 32.0 °F 100% 29.98 in 10.0 mi ENE 8.1 mph - N/A   Mostly Cloudy
9:28 AM 32.0 °F 24.8 °F 32.0 °F 100% 29.98 in 10.0 mi ENE 8.1 mph - N/A   Overcast
9:33 AM 32.0 °F 24.8 °F 32.0 °F 100% 29.98 in 10.0 mi ENE 8.1 mph - N/A   Overcast
9:55 AM 34.0 °F 27.2 °F 33.6 °F 99% 29.98 in 10.0 mi ENE 8.1 mph - 0.01 in   Overcast
10:55 AM 37.0 °F 31.0 °F 33.3 °F 86% 29.98 in 10.0 mi East 8.1 mph - N/A   Overcast
11:44 AM 39.2 °F 33.6 °F 32.0 °F 75% 29.97 in 10.0 mi ESE 8.1 mph - N/A   Overcast
11:55 AM 39.4 °F 34.5 °F 31.8 °F 74% 29.97 in 10.0 mi Variable 6.9 mph - N/A   Overcast
12:55 PM 40.6 °F 35.4 °F 32.4 °F 72% 29.96 in 10.0 mi East 8.1 mph - N/A   Overcast
1:55 PM 42.1 °F 38.4 °F 31.8 °F 67% 29.94 in 10.0 mi ENE 5.8 mph - N/A   Overcast
2:38 PM 42.8 °F 41.1 °F 32.0 °F 66% 29.93 in 10.0 mi Variable 3.5 mph - N/A   Overcast
2:44 PM 42.8 °F 40.1 °F 32.0 °F 66% 29.92 in 10.0 mi NE 4.6 mph - N/A   Overcast
2:55 PM 42.6 °F 37.8 °F 32.9 °F 68% 29.92 in 10.0 mi North 8.1 mph - N/A   Overcast
3:21 PM 42.8 °F 41.1 °F 32.0 °F 66% 29.92 in 10.0 mi Variable 3.5 mph - N/A   Overcast
3:22 PM 42.8 °F 41.1 °F 32.0 °F 66% 29.92 in 10.0 mi Variable 3.5 mph - N/A   Overcast
3:31 PM 42.8 °F 40.1 °F 32.0 °F 66% 29.91 in 10.0 mi NE 4.6 mph - N/A   Overcast
3:55 PM 43.3 °F 41.7 °F 32.0 °F 64% 29.92 in 10.0 mi NNE 3.5 mph - N/A   Overcast
4:55 PM 43.7 °F 41.1 °F 31.3 °F 62% 29.92 in 10.0 mi North 4.6 mph - N/A   Overcast
5:55 PM 43.7 °F 42.1 °F 31.5 °F 62% 29.91 in 10.0 mi NE 3.5 mph - N/A   Overcast
6:55 PM 43.5 °F 41.9 °F 31.8 °F 63% 29.92 in 10.0 mi NNW 3.5 mph - N/A   Overcast
7:55 PM 41.9 °F 40.0 °F 32.5 °F 69% 29.93 in 10.0 mi NW 3.5 mph - N/A   Overcast
8:55 PM 40.5 °F 38.4 °F 32.5 °F 73% 29.92 in 10.0 mi West 3.5 mph - N/A   Overcast
9:55 PM 40.3 °F - 32.7 °F 74% 29.91 in 10.0 mi Calm Calm - N/A   Overcast
10:55 PM 39.7 °F 36.5 °F 34.7 °F 82% 29.92 in 10.0 mi West 4.6 mph - N/A   Overcast
11:55 PM 39.0 °F 34.8 °F 34.3 °F 83% 29.91 in 10.0 mi West 5.8 mph - N/A   Overcast